AAL1399 KLAS-KLAX

Flight info

Callsign AAL1399
Flight time 0h 39m
Altitude 26000
Route RADYR2 BLAQQ SHTNR ANJLL4
Aircraft A21N/M-SDE2E3FGHIJ1RWXY/LB1

Departure

Time 2026-05-06 16:51
Airport Harry Reid International Airport (KLAS)

Arrival

Time 2026-05-06 17:31
Airport Los Angeles International Airport (KLAX)
Time Latitude Longitude Altitude Speed Heading
2026-05-06 16:22 36.08101 -115.14022 2090 ft 0 kts 133°
2026-05-06 16:38 36.08109 -115.14032 2090 ft 2 kts 133°
2026-05-06 16:38 36.08118 -115.14046 2090 ft 2 kts 133°
2026-05-06 16:39 36.08128 -115.14060 2090 ft 2 kts 105°
2026-05-06 16:39 36.08128 -115.14079 2091 ft 2 kts 69°
2026-05-06 16:39 36.08120 -115.14095 2091 ft 2 kts 38°
2026-05-06 16:39 36.08109 -115.14107 2092 ft 2 kts 62°
2026-05-06 16:40 36.08105 -115.14125 2093 ft 2 kts 92°
2026-05-06 16:40 36.08109 -115.14143 2093 ft 2 kts 123°
2026-05-06 16:40 36.08120 -115.14156 2093 ft 2 kts 154°
2026-05-06 16:40 36.08131 -115.14160 2093 ft 0 kts 177°
2026-05-06 16:41 36.08138 -115.14160 2093 ft 1 kts 181°
2026-05-06 16:41 36.08138 -115.14159 2093 ft 0 kts 181°
2026-05-06 16:42 36.08130 -115.14160 2093 ft 3 kts 180°
2026-05-06 16:43 36.08087 -115.14159 2094 ft 7 kts 179°
2026-05-06 16:43 36.08037 -115.14159 2095 ft 6 kts 181°
2026-05-06 16:43 36.07997 -115.14159 2095 ft 5 kts 179°
2026-05-06 16:43 36.07962 -115.14159 2095 ft 4 kts 180°
2026-05-06 16:44 36.07932 -115.14159 2096 ft 3 kts 181°
2026-05-06 16:44 36.07907 -115.14160 2096 ft 3 kts 179°
2026-05-06 16:44 36.07879 -115.14159 2097 ft 4 kts 180°
2026-05-06 16:44 36.07848 -115.14159 2097 ft 4 kts 180°
2026-05-06 16:45 36.07812 -115.14159 2098 ft 5 kts 180°
2026-05-06 16:45 36.07769 -115.14153 2098 ft 6 kts 149°
2026-05-06 16:45 36.07753 -115.14087 2097 ft 10 kts 90°
2026-05-06 16:45 36.07755 -115.13981 2093 ft 14 kts 89°
2026-05-06 16:46 36.07754 -115.13838 2088 ft 18 kts 90°
2026-05-06 16:46 36.07754 -115.13678 2085 ft 19 kts 90°
2026-05-06 16:46 36.07755 -115.13498 2079 ft 22 kts 90°
2026-05-06 16:46 36.07755 -115.13321 2075 ft 12 kts 90°
2026-05-06 16:47 36.07753 -115.13200 2073 ft 15 kts 91°
2026-05-06 16:47 36.07753 -115.13095 2070 ft 9 kts 89°
2026-05-06 16:47 36.07753 -115.13000 2068 ft 12 kts 89°
2026-05-06 16:47 36.07754 -115.12888 2066 ft 14 kts 90°
2026-05-06 16:48 36.07755 -115.12753 2063 ft 16 kts 89°
2026-05-06 16:48 36.07755 -115.12605 2061 ft 17 kts 90°
2026-05-06 16:48 36.07755 -115.12451 2059 ft 18 kts 90°
2026-05-06 16:48 36.07755 -115.12323 2057 ft 11 kts 90°
2026-05-06 16:49 36.07755 -115.12225 2056 ft 9 kts 90°
2026-05-06 16:49 36.07755 -115.12171 2056 ft 4 kts 93°
2026-05-06 16:49 36.07741 -115.12144 2056 ft 3 kts 134°
2026-05-06 16:49 36.07721 -115.12128 2056 ft 3 kts 162°
2026-05-06 16:50 36.07691 -115.12127 2056 ft 4 kts 180°
2026-05-06 16:50 36.07655 -115.12127 2056 ft 5 kts 182°
2026-05-06 16:50 36.07643 -115.12150 2056 ft 3 kts 268°
2026-05-06 16:50 36.07643 -115.12166 2056 ft 0 kts 270°
2026-05-06 16:51 36.07644 -115.12508 2060 ft 78 kts 270°
2026-05-06 16:51 36.07643 -115.13480 2080 ft 145 kts 270°
2026-05-06 16:51 36.07642 -115.14902 2423 ft 171 kts 271°
2026-05-06 16:51 36.07645 -115.16341 3128 ft 171 kts 271°
2026-05-06 16:52 36.07645 -115.17853 3679 ft 184 kts 270°
2026-05-06 16:52 36.07632 -115.19496 4161 ft 199 kts 270°
2026-05-06 16:52 36.07600 -115.21277 4640 ft 216 kts 266°
2026-05-06 16:52 36.07370 -115.23162 5190 ft 229 kts 260°
2026-05-06 16:53 36.06855 -115.25101 5507 ft 254 kts 237°
2026-05-06 16:53 36.05520 -115.26596 6116 ft 267 kts 207°
2026-05-06 16:53 36.03753 -115.27429 6647 ft 283 kts 200°
2026-05-06 16:53 36.01837 -115.28245 7129 ft 301 kts 200°
2026-05-06 16:54 35.99777 -115.29089 7590 ft 319 kts 198°
2026-05-06 16:54 35.97583 -115.29792 8036 ft 337 kts 193°
2026-05-06 16:54 35.95233 -115.30383 8631 ft 348 kts 192°
2026-05-06 16:54 35.92844 -115.30966 9364 ft 352 kts 192°
2026-05-06 16:55 35.90443 -115.31553 10060 ft 357 kts 192°
2026-05-06 16:55 35.87951 -115.32162 10788 ft 361 kts 192°
2026-05-06 16:55 35.85506 -115.32761 11592 ft 359 kts 192°
2026-05-06 16:55 35.83044 -115.33363 12230 ft 363 kts 192°
2026-05-06 16:56 35.80558 -115.33972 12818 ft 369 kts 192°
2026-05-06 16:56 35.78019 -115.34592 13437 ft 375 kts 192°
2026-05-06 16:56 35.75436 -115.35223 14072 ft 380 kts 192°
2026-05-06 16:56 35.72829 -115.35859 14701 ft 386 kts 192°
2026-05-06 16:57 35.70190 -115.36505 15366 ft 392 kts 191°
2026-05-06 16:57 35.67481 -115.37169 16051 ft 397 kts 191°
2026-05-06 16:57 35.64783 -115.37828 16702 ft 401 kts 191°
2026-05-06 16:57 35.62006 -115.38379 17356 ft 405 kts 186°
2026-05-06 16:58 35.59187 -115.38605 17993 ft 409 kts 180°
2026-05-06 16:58 35.56323 -115.38508 18606 ft 413 kts 176°
2026-05-06 16:58 35.53471 -115.38291 19202 ft 417 kts 175°
2026-05-06 16:58 35.50569 -115.38055 19794 ft 421 kts 175°
2026-05-06 16:59 35.47625 -115.37835 20398 ft 425 kts 176°
2026-05-06 16:59 35.44650 -115.38063 20955 ft 431 kts 189°
2026-05-06 16:59 35.41768 -115.39054 21504 ft 436 kts 202°
2026-05-06 16:59 35.39003 -115.40679 22047 ft 439 kts 208°
2026-05-06 17:00 35.36307 -115.42445 22547 ft 444 kts 209°
2026-05-06 17:00 35.33587 -115.44246 23026 ft 448 kts 209°
2026-05-06 17:00 35.30849 -115.46039 23490 ft 452 kts 209°
2026-05-06 17:00 35.28045 -115.47852 23956 ft 455 kts 208°
2026-05-06 17:01 35.25210 -115.49667 24416 ft 459 kts 208°
2026-05-06 17:01 35.22401 -115.51458 24881 ft 462 kts 208°
2026-05-06 17:01 35.19509 -115.53298 25335 ft 466 kts 208°
2026-05-06 17:01 35.16662 -115.55109 25764 ft 469 kts 208°
2026-05-06 17:02 35.13835 -115.57141 26056 ft 472 kts 214°
2026-05-06 17:02 35.11187 -115.59561 26129 ft 471 kts 222°
2026-05-06 17:02 35.08831 -115.62272 26179 ft 470 kts 227°
2026-05-06 17:02 35.06566 -115.65162 26219 ft 470 kts 228°
2026-05-06 17:03 35.04339 -115.68063 26242 ft 470 kts 229°
2026-05-06 17:03 35.02066 -115.71018 26185 ft 470 kts 228°
2026-05-06 17:03 34.99813 -115.73925 26137 ft 470 kts 228°
2026-05-06 17:03 34.97560 -115.76814 26111 ft 469 kts 228°
2026-05-06 17:04 34.95310 -115.79688 26102 ft 469 kts 228°
2026-05-06 17:04 34.93057 -115.82557 26105 ft 469 kts 228°
2026-05-06 17:04 34.90799 -115.85430 26109 ft 469 kts 228°
2026-05-06 17:04 34.88532 -115.88311 26112 ft 469 kts 228°
2026-05-06 17:05 34.86263 -115.91192 26116 ft 469 kts 228°
2026-05-06 17:05 34.83988 -115.94077 26126 ft 470 kts 227°
2026-05-06 17:05 34.81701 -115.96976 26132 ft 470 kts 227°
2026-05-06 17:05 34.79438 -115.99841 26134 ft 470 kts 227°
2026-05-06 17:06 34.77159 -116.02724 26135 ft 470 kts 227°
2026-05-06 17:06 34.74906 -116.05591 26131 ft 470 kts 228°
2026-05-06 17:06 34.72650 -116.08468 26129 ft 470 kts 228°
2026-05-06 17:06 34.70372 -116.11373 26129 ft 470 kts 228°
2026-05-06 17:07 34.68095 -116.14272 26131 ft 471 kts 228°
2026-05-06 17:07 34.65868 -116.17107 26137 ft 471 kts 228°
2026-05-06 17:07 34.63602 -116.19985 26145 ft 471 kts 228°
2026-05-06 17:07 34.61337 -116.22859 26153 ft 471 kts 227°
2026-05-06 17:08 34.59061 -116.25745 26164 ft 471 kts 227°
2026-05-06 17:08 34.56788 -116.28626 26175 ft 471 kts 227°
2026-05-06 17:08 34.54532 -116.31481 26185 ft 471 kts 227°
2026-05-06 17:08 34.52277 -116.34333 26193 ft 471 kts 227°
2026-05-06 17:09 34.49984 -116.37231 26200 ft 471 kts 227°
2026-05-06 17:09 34.47731 -116.40074 26205 ft 471 kts 227°
2026-05-06 17:09 34.45469 -116.42928 26208 ft 471 kts 227°
2026-05-06 17:09 34.43248 -116.45878 26209 ft 470 kts 232°
2026-05-06 17:10 34.41297 -116.49058 26214 ft 469 kts 239°
2026-05-06 17:10 34.39662 -116.52438 26214 ft 467 kts 245°
2026-05-06 17:10 34.38205 -116.55943 26047 ft 469 kts 247°
2026-05-06 17:10 34.36771 -116.59527 25460 ft 473 kts 247°
2026-05-06 17:11 34.35340 -116.63085 24857 ft 474 kts 247°
2026-05-06 17:11 34.33904 -116.66602 24440 ft 466 kts 246°
2026-05-06 17:11 34.32464 -116.70130 23961 ft 459 kts 246°
2026-05-06 17:11 34.31075 -116.73582 23450 ft 452 kts 247°
2026-05-06 17:12 34.29718 -116.76964 22935 ft 445 kts 247°
2026-05-06 17:12 34.28381 -116.80295 22490 ft 437 kts 247°
2026-05-06 17:12 34.27045 -116.83616 22071 ft 430 kts 247°
2026-05-06 17:12 34.25762 -116.86800 21688 ft 422 kts 246°
2026-05-06 17:13 34.24491 -116.89946 21331 ft 414 kts 246°
2026-05-06 17:13 34.23219 -116.93090 20778 ft 413 kts 246°
2026-05-06 17:13 34.21977 -116.96180 20251 ft 410 kts 248°
2026-05-06 17:13 34.20871 -116.99320 19738 ft 403 kts 252°
2026-05-06 17:14 34.19954 -117.02480 19244 ft 399 kts 255°
2026-05-06 17:14 34.19101 -117.05648 18734 ft 395 kts 255°
2026-05-06 17:14 34.18263 -117.08785 18239 ft 392 kts 255°
2026-05-06 17:14 34.17427 -117.11907 17752 ft 389 kts 255°
2026-05-06 17:15 34.16592 -117.14997 17273 ft 387 kts 255°
2026-05-06 17:15 34.15743 -117.18102 16849 ft 385 kts 255°
2026-05-06 17:15 34.14902 -117.21162 16421 ft 382 kts 255°
2026-05-06 17:15 34.14076 -117.24170 15998 ft 376 kts 255°
2026-05-06 17:16 34.13251 -117.27166 15619 ft 370 kts 255°
2026-05-06 17:16 34.12443 -117.30095 15244 ft 365 kts 255°
2026-05-06 17:16 34.11642 -117.32994 14851 ft 363 kts 255°
2026-05-06 17:16 34.10854 -117.35850 14405 ft 361 kts 255°
2026-05-06 17:17 34.10078 -117.38733 13928 ft 358 kts 256°
2026-05-06 17:17 34.09367 -117.41590 13459 ft 356 kts 257°
2026-05-06 17:17 34.08662 -117.44455 13013 ft 353 kts 257°
2026-05-06 17:17 34.07961 -117.47283 12684 ft 347 kts 256°
2026-05-06 17:18 34.07273 -117.50038 12438 ft 337 kts 256°
2026-05-06 17:18 34.06594 -117.52711 12055 ft 333 kts 256°
2026-05-06 17:18 34.05910 -117.55380 11656 ft 330 kts 256°
2026-05-06 17:18 34.05231 -117.58023 11261 ft 327 kts 256°
2026-05-06 17:19 34.04567 -117.60618 10874 ft 325 kts 256°
2026-05-06 17:19 34.03901 -117.63224 10480 ft 321 kts 255°
2026-05-06 17:19 34.03247 -117.65775 10172 ft 315 kts 255°
2026-05-06 17:19 34.02619 -117.68247 10129 ft 298 kts 256°
2026-05-06 17:20 34.02159 -117.70615 10099 ft 287 kts 262°
2026-05-06 17:20 34.01872 -117.73011 9658 ft 291 kts 265°
2026-05-06 17:20 34.01643 -117.75446 9258 ft 289 kts 265°
2026-05-06 17:20 34.01429 -117.77761 9054 ft 283 kts 265°
2026-05-06 17:21 34.01206 -117.80124 8613 ft 285 kts 265°
2026-05-06 17:21 34.00979 -117.82501 8252 ft 283 kts 264°
2026-05-06 17:21 34.00754 -117.84808 8089 ft 272 kts 264°
2026-05-06 17:21 34.00537 -117.87024 7681 ft 270 kts 264°
2026-05-06 17:22 34.00319 -117.89257 7314 ft 263 kts 264°
2026-05-06 17:22 34.00131 -117.91183 7035 ft 256 kts 264°
2026-05-06 17:22 33.99925 -117.93291 6741 ft 248 kts 264°
2026-05-06 17:22 33.99728 -117.95300 6454 ft 240 kts 264°
2026-05-06 17:23 33.99534 -117.97282 6140 ft 233 kts 264°
2026-05-06 17:23 33.99344 -117.99200 5838 ft 227 kts 264°
2026-05-06 17:23 33.99158 -118.01056 5538 ft 221 kts 264°
2026-05-06 17:23 33.98974 -118.02890 5238 ft 216 kts 264°
2026-05-06 17:24 33.98797 -118.04663 4946 ft 214 kts 264°
2026-05-06 17:24 33.98620 -118.06438 4652 ft 213 kts 264°
2026-05-06 17:24 33.98444 -118.08221 4378 ft 210 kts 264°
2026-05-06 17:24 33.98273 -118.09933 4235 ft 202 kts 263°
2026-05-06 17:25 33.98107 -118.11591 4035 ft 198 kts 263°
2026-05-06 17:25 33.97943 -118.13232 3827 ft 192 kts 263°
2026-05-06 17:25 33.97786 -118.14807 3623 ft 188 kts 263°
2026-05-06 17:25 33.97628 -118.16389 3424 ft 188 kts 263°
2026-05-06 17:26 33.97472 -118.17941 3228 ft 187 kts 263°
2026-05-06 17:26 33.97314 -118.19514 3040 ft 187 kts 263°
2026-05-06 17:26 33.97159 -118.21049 2857 ft 186 kts 263°
2026-05-06 17:26 33.97007 -118.22578 2753 ft 176 kts 263°
2026-05-06 17:27 33.96873 -118.24004 2637 ft 163 kts 263°
2026-05-06 17:27 33.96747 -118.25309 2541 ft 155 kts 263°
2026-05-06 17:27 33.96617 -118.26601 2337 ft 154 kts 263°
2026-05-06 17:27 33.96484 -118.27883 2129 ft 154 kts 263°
2026-05-06 17:28 33.96352 -118.29155 1923 ft 153 kts 263°
2026-05-06 17:28 33.96218 -118.30434 1716 ft 153 kts 263°
2026-05-06 17:28 33.96087 -118.31695 1513 ft 152 kts 263°
2026-05-06 17:28 33.95955 -118.32964 1336 ft 149 kts 263°
2026-05-06 17:29 33.95841 -118.34069 1144 ft 148 kts 263°
2026-05-06 17:29 33.95775 -118.34708 1037 ft 148 kts 263°
2026-05-06 17:29 33.95649 -118.35931 836 ft 147 kts 263°
2026-05-06 17:29 33.95523 -118.37154 642 ft 147 kts 263°
2026-05-06 17:30 33.95398 -118.38377 449 ft 147 kts 263°
2026-05-06 17:30 33.95271 -118.39604 252 ft 146 kts 263°
2026-05-06 17:30 33.95149 -118.40806 131 ft 141 kts 263°
2026-05-06 17:30 33.95044 -118.41857 122 ft 102 kts 262°
2026-05-06 17:31 33.94981 -118.42419 117 ft 32 kts 255°
2026-05-06 17:31 33.94924 -118.42569 115 ft 15 kts 239°
2026-05-06 17:31 33.94887 -118.42634 114 ft 7 kts 232°
2026-05-06 17:31 33.94848 -118.42685 113 ft 9 kts 225°
2026-05-06 17:32 33.94792 -118.42740 112 ft 11 kts 211°
2026-05-06 17:32 33.94716 -118.42778 111 ft 12 kts 192°
2026-05-06 17:32 33.94656 -118.42780 110 ft 2 kts 175°
2026-05-06 17:35 33.94653 -118.42779 110 ft 1 kts 175°
2026-05-06 17:36 33.94594 -118.42772 110 ft 8 kts 174°
2026-05-06 17:36 33.94521 -118.42761 110 ft 12 kts 173°
2026-05-06 17:36 33.94431 -118.42747 108 ft 13 kts 173°
2026-05-06 17:36 33.94331 -118.42732 107 ft 15 kts 173°
2026-05-06 17:37 33.94223 -118.42716 106 ft 16 kts 173°
2026-05-06 17:37 33.94111 -118.42699 106 ft 16 kts 173°
2026-05-06 17:37 33.94000 -118.42683 105 ft 15 kts 174°
2026-05-06 17:37 33.93893 -118.42668 105 ft 15 kts 173°
2026-05-06 17:38 33.93789 -118.42653 104 ft 14 kts 173°
2026-05-06 17:38 33.93703 -118.42616 104 ft 12 kts 111°
2026-05-06 17:38 33.93704 -118.42521 106 ft 10 kts 82°
2026-05-06 17:38 33.93713 -118.42438 108 ft 9 kts 83°
2026-05-06 17:39 33.93721 -118.42355 110 ft 10 kts 81°
2026-05-06 17:39 33.93731 -118.42263 111 ft 11 kts 84°
2026-05-06 17:39 33.93740 -118.42157 112 ft 13 kts 85°
2026-05-06 17:39 33.93752 -118.42040 115 ft 14 kts 81°
2026-05-06 17:40 33.93766 -118.41912 118 ft 16 kts 84°
2026-05-06 17:40 33.93780 -118.41782 120 ft 14 kts 82°
2026-05-06 17:40 33.93792 -118.41667 121 ft 13 kts 85°
2026-05-06 17:40 33.93802 -118.41554 123 ft 13 kts 84°
2026-05-06 17:41 33.93813 -118.41439 124 ft 14 kts 82°
2026-05-06 17:41 33.93827 -118.41317 125 ft 14 kts 84°
2026-05-06 17:41 33.93840 -118.41190 126 ft 15 kts 82°
2026-05-06 17:41 33.93854 -118.41056 126 ft 16 kts 81°
2026-05-06 17:42 33.93869 -118.40923 126 ft 15 kts 83°
2026-05-06 17:42 33.93904 -118.40816 126 ft 13 kts 23°
2026-05-06 17:42 33.93955 -118.40812 126 ft 3 kts 39°
2026-05-06 17:42 33.93965 -118.40781 126 ft 4 kts 72°
2026-05-06 17:43 33.93975 -118.40745 125 ft 4 kts 70°
2026-05-06 17:43 33.93979 -118.40733 125 ft 0 kts 70°